TimeEDT,TemperatureF,Dew PointF,Humidity,Sea Level PressureIn,VisibilityMPH,Wind Direction,Wind SpeedMPH,Gust SpeedMPH,PrecipitationIn,Events,Conditions,WindDirDegrees,DateUTC
12:15 AM,32.0,24.8,75,30.16,10.0,North,4.6,-,N/A,,Clear,10,2013-04-11 04:15:00
12:34 AM,32.0,24.8,75,30.14,10.0,NNE,6.9,-,N/A,,Clear,20,2013-04-11 04:34:00
12:54 AM,30.2,24.8,80,30.14,10.0,NNE,6.9,-,N/A,,Clear,30,2013-04-11 04:54:00
1:15 AM,32.0,23.0,69,30.15,10.0,NNE,6.9,-,N/A,,Clear,30,2013-04-11 05:15:00
1:34 AM,32.0,21.2,64,30.14,10.0,NE,11.5,-,N/A,,Clear,40,2013-04-11 05:34:00
1:54 AM,32.0,21.2,64,30.14,10.0,NE,10.4,16.1,N/A,,Clear,40,2013-04-11 05:54:00
2:15 AM,30.2,21.2,69,30.13,10.0,NE,11.5,-,N/A,,Clear,50,2013-04-11 06:15:00
2:34 AM,30.2,21.2,69,30.13,10.0,NE,9.2,-,N/A,,Clear,50,2013-04-11 06:34:00
2:55 AM,30.2,21.2,69,30.12,10.0,NE,10.4,18.4,N/A,,Clear,50,2013-04-11 06:55:00
3:15 AM,30.2,21.2,69,30.12,10.0,NE,9.2,17.3,N/A,,Clear,50,2013-04-11 07:15:00
3:34 AM,30.2,19.4,64,30.11,10.0,NE,11.5,-,N/A,,Clear,50,2013-04-11 07:34:00
3:55 AM,28.4,19.4,69,30.11,10.0,NE,9.2,-,N/A,,Clear,40,2013-04-11 07:55:00
4:15 AM,28.4,19.4,69,30.12,10.0,NE,10.4,-,N/A,,Clear,40,2013-04-11 08:15:00
4:34 AM,28.4,19.4,69,30.12,10.0,NNE,9.2,-,N/A,,Clear,30,2013-04-11 08:34:00
4:55 AM,28.4,19.4,69,30.12,10.0,NE,8.1,-,N/A,,Clear,40,2013-04-11 08:55:00
5:14 AM,28.4,19.4,69,30.13,10.0,ENE,8.1,-,N/A,,Clear,60,2013-04-11 09:14:00
5:34 AM,28.4,19.4,69,30.14,10.0,ENE,9.2,-,N/A,,Clear,60,2013-04-11 09:34:00
5:55 AM,26.6,19.4,74,30.13,10.0,NE,11.5,-,N/A,,Clear,50,2013-04-11 09:55:00
6:14 AM,26.6,19.4,74,30.13,10.0,ENE,10.4,-,N/A,,Clear,60,2013-04-11 10:14:00
6:34 AM,26.6,19.4,74,30.12,10.0,NE,9.2,-,N/A,,Clear,50,2013-04-11 10:34:00
6:55 AM,26.6,19.4,74,30.13,10.0,NE,9.2,-,N/A,,Clear,50,2013-04-11 10:55:00
7:14 AM,26.6,17.6,69,30.13,10.0,NE,10.4,-,N/A,,Clear,50,2013-04-11 11:14:00
7:35 AM,26.6,15.8,64,30.13,10.0,ENE,16.1,23.0,N/A,,Clear,70,2013-04-11 11:35:00
7:55 AM,26.6,14.0,59,30.12,10.0,ENE,12.7,20.7,N/A,,Clear,60,2013-04-11 11:55:00
8:14 AM,26.6,14.0,59,30.13,10.0,ENE,16.1,20.7,N/A,,Clear,60,2013-04-11 12:14:00
8:35 AM,26.6,12.2,55,30.15,10.0,ENE,9.2,17.3,N/A,,Clear,60,2013-04-11 12:35:00
8:55 AM,26.6,12.2,55,30.16,10.0,East,13.8,18.4,N/A,,Clear,80,2013-04-11 12:55:00
9:14 AM,26.6,12.2,55,30.16,10.0,ENE,15.0,23.0,N/A,,Clear,70,2013-04-11 13:14:00
9:35 AM,26.6,12.2,55,30.12,10.0,ENE,16.1,20.7,N/A,,Clear,60,2013-04-11 13:35:00
9:54 AM,26.6,12.2,55,30.12,10.0,ENE,17.3,21.9,N/A,,Clear,60,2013-04-11 13:54:00
10:14 AM,26.6,10.4,51,30.11,10.0,ENE,17.3,20.7,N/A,,Clear,70,2013-04-11 14:14:00
10:35 AM,28.4,10.4,47,30.09,10.0,East,18.4,23.0,N/A,,Clear,80,2013-04-11 14:35:00
10:54 AM,28.4,10.4,47,30.10,10.0,ENE,12.7,16.1,N/A,,Clear,70,2013-04-11 14:54:00
11:14 AM,28.4,10.4,47,30.12,10.0,ENE,11.5,19.6,N/A,,Clear,70,2013-04-11 15:14:00
11:34 AM,28.4,12.2,51,30.13,10.0,ENE,12.7,-,N/A,,Clear,60,2013-04-11 15:34:00
11:54 AM,28.4,10.4,47,30.11,10.0,NE,13.8,17.3,N/A,,Clear,50,2013-04-11 15:54:00
12:15 PM,30.2,12.2,47,30.09,10.0,ENE,16.1,21.9,N/A,,Scattered Clouds,60,2013-04-11 16:15:00
12:34 PM,30.2,12.2,47,30.09,10.0,ENE,16.1,21.9,N/A,,Clear,60,2013-04-11 16:34:00
1:15 PM,30.2,12.2,47,30.07,10.0,ENE,17.3,-,N/A,,Scattered Clouds,60,2013-04-11 17:15:00
1:34 PM,30.2,12.2,47,30.05,10.0,ENE,17.3,21.9,N/A,,Mostly Cloudy,70,2013-04-11 17:34:00
1:55 PM,30.2,12.2,47,30.05,10.0,ENE,10.4,-,N/A,,Mostly Cloudy,70,2013-04-11 17:55:00
2:14 PM,30.2,12.2,47,30.06,10.0,East,10.4,23.0,N/A,,Scattered Clouds,80,2013-04-11 18:14:00
2:34 PM,32.0,12.2,44,30.04,10.0,ENE,16.1,26.5,N/A,,Clear,70,2013-04-11 18:34:00
2:55 PM,32.0,12.2,44,30.05,10.0,East,18.4,25.3,N/A,,Clear,80,2013-04-11 18:55:00
3:14 PM,33.8,12.2,41,30.05,10.0,East,12.7,24.2,N/A,,Scattered Clouds,90,2013-04-11 19:14:00
3:34 PM,33.8,12.2,41,30.03,10.0,ENE,15.0,23.0,N/A,,Scattered Clouds,70,2013-04-11 19:34:00
3:55 PM,33.8,14.0,44,30.01,10.0,ENE,16.1,23.0,N/A,,Scattered Clouds,60,2013-04-11 19:55:00
4:14 PM,33.8,12.2,41,30.03,10.0,East,17.3,23.0,N/A,,Scattered Clouds,80,2013-04-11 20:14:00
4:34 PM,33.8,14.0,44,30.01,10.0,NE,18.4,21.9,N/A,,Scattered Clouds,50,2013-04-11 20:34:00
4:55 PM,33.8,14.0,44,30.01,10.0,ENE,15.0,21.9,N/A,,Scattered Clouds,60,2013-04-11 20:55:00
5:14 PM,33.8,14.0,44,30.02,10.0,ENE,16.1,19.6,N/A,,Mostly Cloudy,60,2013-04-11 21:14:00
5:35 PM,33.8,15.8,48,30.02,10.0,ENE,16.1,-,N/A,,Overcast,70,2013-04-11 21:35:00
5:55 PM,33.8,15.8,48,30.01,10.0,ENE,16.1,-,N/A,,Mostly Cloudy,60,2013-04-11 21:55:00
6:14 PM,33.8,15.8,48,30.01,10.0,ENE,13.8,23.0,N/A,,Scattered Clouds,70,2013-04-11 22:14:00
6:35 PM,33.8,15.8,48,30.01,10.0,ENE,12.7,18.4,N/A,,Scattered Clouds,70,2013-04-11 22:35:00
6:54 PM,33.8,15.8,48,29.99,10.0,ENE,16.1,23.0,N/A,,Mostly Cloudy,70,2013-04-11 22:54:00
7:14 PM,33.8,15.8,48,29.98,10.0,ENE,16.1,-,N/A,,Overcast,60,2013-04-11 23:14:00
7:35 PM,33.8,15.8,48,29.98,10.0,ENE,13.8,20.7,N/A,,Overcast,60,2013-04-11 23:35:00
7:54 PM,33.8,15.8,48,29.98,10.0,ENE,15.0,26.5,N/A,,Overcast,70,2013-04-11 23:54:00
8:14 PM,33.8,15.8,48,29.97,10.0,ENE,13.8,20.7,N/A,,Overcast,70,2013-04-12 00:14:00
8:35 PM,33.8,17.6,52,29.96,10.0,East,9.2,-,N/A,,Overcast,90,2013-04-12 00:35:00
8:54 PM,33.8,17.6,52,29.94,10.0,ENE,12.7,20.7,N/A,,Overcast,70,2013-04-12 00:54:00
9:14 PM,33.8,17.6,52,29.95,10.0,East,11.5,-,N/A,,Overcast,80,2013-04-12 01:14:00
9:34 PM,33.8,17.6,52,29.97,10.0,East,13.8,18.4,N/A,,Overcast,80,2013-04-12 01:34:00
9:54 PM,32.0,19.4,60,29.97,10.0,East,12.7,-,N/A,,Overcast,90,2013-04-12 01:54:00
10:15 PM,32.0,19.4,60,29.97,10.0,East,13.8,18.4,N/A,,Overcast,80,2013-04-12 02:15:00
10:34 PM,30.2,21.2,69,29.97,3.0,ENE,15.0,33.4,N/A,Snow,Light Snow,70,2013-04-12 02:34:00
10:54 PM,30.2,23.0,75,29.99,2.0,East,18.4,24.2,N/A,Snow,Light Snow,80,2013-04-12 02:54:00
11:14 PM,28.4,24.8,86,29.98,1.0,East,12.7,19.6,N/A,Snow,Snow,80,2013-04-12 03:14:00
11:34 PM,26.6,24.8,93,29.94,1.0,ENE,15.0,20.7,N/A,Snow,Snow,60,2013-04-12 03:34:00
11:55 PM,26.6,26.6,100,29.92,0.8,ENE,17.3,23.0,N/A,Snow,Snow,60,2013-04-12 03:55:00